This is the latest recevied weather packets stored in our database for station/object DK0KTL-4. If no packets are shown the sender has not sent any weather packets the latest 10 day(s).
| Time | Temp. | Humidity | Pressure | Rain* | Wind** | Luminosity | Snow |
|---|---|---|---|---|---|---|---|
| 1777609193 | 2.22° C | 87% | 1029.4 hPa | 0 mm | - | - | - |
| 1777608592 | 2.22° C | 87% | 1029.4 hPa | 0 mm | - | - | - |
| 1777606790 | 2.22° C | 86% | 1029.2 hPa | 0 mm | - | - | - |
| 1777606190 | 2.22° C | 86% | 1029.3 hPa | 0 mm | - | - | - |
| 1777605289 | 2.78° C | 85% | 1029.3 hPa | 0 mm | - | - | - |
| 1777604989 | 2.78° C | 85% | 1029.3 hPa | 0 mm | - | - | - |
| 1777604388 | 2.78° C | 85% | 1029.3 hPa | 0 mm | - | - | - |
| 1777603788 | 2.78° C | 84% | 1029.4 hPa | 0 mm | - | - | - |
| 1777603487 | 2.78° C | 84% | 1029.3 hPa | 0 mm | - | - | - |
| 1777601986 | 2.78° C | 85% | 1029.3 hPa | 0 mm | - | - | - |
| 1777601686 | 2.78° C | 85% | 1029.3 hPa | 0 mm | - | - | - |
| 1777601385 | 2.78° C | 85% | 1029.2 hPa | 0 mm | - | - | - |
| 1777600785 | 2.78° C | 84% | 1029.2 hPa | 0 mm | - | - | - |
| 1777585470 | 6.67° C | 71% | 1029.1 hPa | 0 mm | - | - | - |
| 1777584569 | 7.22° C | 70% | 1029 hPa | 0 mm | - | - | - |
| 1777583668 | 7.22° C | 69% | 1029.2 hPa | 0 mm | - | - | - |
| 1777583068 | 7.22° C | 68% | 1029.1 hPa | 0 mm | - | - | - |
| 1777582767 | 7.22° C | 68% | 1029.1 hPa | 0 mm | - | - | - |
| 1777581566 | 7.22° C | 68% | 1029 hPa | 0 mm | - | - | - |
| 1777580665 | 7.78° C | 67% | 1029 hPa | 0 mm | - | - | - |
| 1777580065 | 7.78° C | 66% | 1029 hPa | 0 mm | - | - | - |
| 1777579764 | 7.78° C | 65% | 1029 hPa | 0 mm | - | - | - |
| 1777579164 | 8.33° C | 64% | 1029 hPa | 0 mm | - | - | - |
| 1777578864 | 8.33° C | 64% | 1029.1 hPa | 0 mm | - | - | - |
| 1777577362 | 9.44° C | 61% | 1029.1 hPa | 0 mm | - | - | - |
* Rain latest hour (hover to see other rain measurements)
** Current wind speed in m/s (hover to see current wind gust speed)